Regional Weather Roundup
Issued by NWS Northern Indiana

Home | Current Version | Previous Version | Graphics & Text | Print | Product List | Glossary Off
Versions: 1 2 3 4 5 6 7 8 9 10 11 12 13 14 15 16 17 18 19 20 21 22 23 24 25 26 27 28 29 30 31 32 33 34 35 36 37 38 39 40 41 42 43 44 45 46 47 48 49 50

000
ASUS43 KIWX 031000
RWRIWX

KIWX WEATHER ROUNDUP
NATIONAL WEATHER SERVICE NORTHERN INDIANA
600 AM EDT SUN MAY 03 2015

NOTE: "FAIR" INDICATES FEW OR NO CLOUDS BELOW 12,000 FEET WITH NO
SIGNIFICANT WEATHER AND/OR OBSTRUCTIONS TO VISIBILITY.

* THESE STATIONS ARE NOT UNDER NWS QUALITY CONTROL. THEY ALSO MAY NOT
  REPORT WEATHER SUCH AS PRECIPITATION OR FOG.

INZ001>027-031100-
NORTHERN INDIANA

CITY           SKY/WX    TMP DP  RH WIND       PRES   REMARKS
GARY*          MOCLDY    63 N/A N/A S9        29.99S
SOUTH BEND     PTCLDY    54  39  57 SW7       30.02S
GOSHEN         CLEAR     52  40  63 S5        30.02S
ANGOLA*        CLEAR     48  43  81 CALM      30.03S
FORT WAYNE     MOCLDY    50  43  77 S3        30.05S
PERU/GRISSOM   PTCLDY    51  43  73 S7        30.03S

$$
INZ028>050-031100-
CENTRAL INDIANA

CITY           SKY/WX    TMP DP  RH WIND       PRES   REMARKS
LAFAYETTE      PTCLDY    52  44  74 CALM      30.03S
MUNCIE*        MOCLDY    55  43  63 S6        30.06S
INDIANAPOLIS   MOCLDY    53  44  71 SE5       30.05R

$$
MIZ043>046-050>051-056>058-064>065-071>073-077>080-031100-
SOUTHWEST LOWER MICHIGAN

CITY           SKY/WX    TMP DP  RH WIND       PRES   REMARKS
BATTLE CREEK   CLEAR     54  39  57 S7        30.01S
BENTON HARBOR  PTCLDY    54  40  59 S5        29.99S
COLDWATER*     CLEAR     53  39  59 SW7       30.02S
HILLSDALE*     CLEAR     58  39  48 SW5       30.03S
HOLLAND        PTCLDY    59  40  49 SW10      29.99R
GRAND RAPIDS   PTCLDY    49  38  65 S6        29.98S
KALAMAZOO      PTCLDY    53  42  66 S6        30.01R
STURGIS*       PTCLDY    54  39  58 CALM      30.01F
THREE RIVERS*  FAIR      52  40  64 SW3       30.02S

$$
OHZ001>008-015>018-024>025-031100-
NORTHWEST OHIO

CITY           SKY/WX    TMP DP  RH WIND       PRES   REMARKS
DEFIANCE       PTCLDY    50  42  74 CALM      30.05R
FINDLAY        PTCLDY    51  42  71 S7        30.05S
TOLEDO EXPRESS CLEAR     47  42  83 CALM      30.04R
TOLEDO METCALF CLEAR     52  41  66 SW6       30.05S
LIMA           MOCLDY    51  42  71 S8        30.07R

$$
AND FOR LAKE MICHIGAN COASTAL AND OPEN LAKE BUOY OBSERVATIONS

STATION/POSITION TEMP    WIND        PRES    VSBY  WAVE
                 AIR SEA DIR/SP/G                  HT/PER
                 (F)     (DEG/KT/KT) (MB)    (MI)  (FT/S)
CALUMET HARBOR    60     190/  6/  8   N/A
MICHIGAN CITY     61     160/ 12/ 15   N/A
BURNS HARBOR      59     180/ 10/ 13 1015.9F
SAINT JOSEPH      62     140/  6/ 15 1015.6F
4 MI NW BRIDGMAN  54 49  220/  8/  8   N/A           1
MICHIGAN CITY     57 50  210/  8/ 10   N/A           1

$$
&&


USA.gov is the U.S. government's official web portal to all federal, state and local government web resources and services.